Create Custom Reports and Graphics: Custom Report

Belmont 8000'

Squaw Valley

5/4/26 8:15 PM (-07:00)
Updated Every 15 Minutes
Temp 32.4 °F   4.1
RH 100 %   15
Dew Pt 32.4 °F   0.0
Wet Bulb 32.4 °F   2.2
Wind Dir NNW | 336 °
Wind Spd 0.0 mph   0.7
Wind Gust 0.0 mph   2.7
WindChill 32.5 °F   3.9
Daily Min Temp 31.7 °F   1.4
Daily Max Temp 40.5 °F   13.0
Latest Rain 0.00 In
Daily Rain 0.75 In
New Snow (HN) 1.1 in
Snow Depth (HS) 48.0 in

Last 24 Hours

OV-Belmont 8000'

Hourly Data | America/Los_Angeles
as of 5/4/26 8:25 PM PDT
Date & Time Temp (°F) RH (%) Dew Pt (°F) Wet Bulb (°F) Wind Dir (°) Wind Spd (mph) Wind Gust (mph) WindChill (°F) Latest Rain (In) New Snow (HN) (in) Snow Depth (HS) (in) Daily Min Temp (°F) Daily Max Temp (°F) Daily Rain (In)
5/4/26 - 2000 32.6 100 32.6 32.6 NW | 319 0.0 0.0 32.2 0.22 1.1 48.0 31.7 40.5 0.75
5/4/26 - 1900 32.1 100 32.1 32.1 SW | 234 2.3 10.0 30.2 0.17 0.6 47.3 31.7 40.5 0.53
5/4/26 - 1800 31.8 100 31.8 31.8 SW | 214 8.4 16.7 24.9 0.05 0.0 46.9 31.7 40.5 0.36
5/4/26 - 1700 32.2 100 32.2 32.2 SW | 218 8.6 18.5 26.1 0.08 0.0 46.7 32.2 40.5 0.31
5/4/26 - 1600 34.4 99 34.1 34.2 SW | 220 4.8 13.2 32.2 0.03 0.0 46.8 33.3 40.5 0.23
5/4/26 - 1500 35.3 99 35.1 35.2 SW | 228 5.6 13.1 31.5 0.02 0.0 46.7 33.3 40.5 0.20
5/4/26 - 1400 34.1 99 33.8 34.0 SSW | 200 4.7 9.5 30.1 0.10 0.2 46.8 33.3 40.5 0.18
5/4/26 - 1300 35.5 95 34.3 34.9 NW | 319 5.9 10.1 30.8 0.01 0.0 46.6 34.1 40.5 0.08
5/4/26 - 1200 34.9 97 34.3 34.6 NW | 322 7.7 11.2 28.8 0.02 0.0 46.8 34.1 40.5 0.07
5/4/26 - 1100 35.5 96 34.6 35.1 WNW | 287 5.4 11.5 31.8 0.03 0.0 46.8 34.1 40.5 0.05
5/4/26 - 1000 35.2 97 34.4 34.8 NW | 325 7.6 12.2 30.2 0.02 0.0 46.8 34.4 40.5 0.02
5/4/26 - 0900 37.6 87 34.1 35.9 NW | 318 5.9 11.6 34.3 0.00 0.0 46.7 34.4 40.5 0.00
5/4/26 - 0800 37.4 82 32.4 35.0 NW | 318 8.3 14.8 30.8 0.00 0.1 46.8 34.4 38.5 0.00
5/4/26 - 0700 36.8 81 31.4 34.3 WNW | 301 4.1 12.7 33.4 0.00 0.1 46.8 34.4 38.5 0.00
5/4/26 - 0600 34.6 91 32.3 33.5 NW | 308 6.0 10.2 30.4 0.00 0.1 46.9 34.4 38.5 0.00
5/4/26 - 0500 34.9 97 34.2 34.6 NW | 304 6.9 12.4 29.2 0.00 0.1 46.9 34.6 38.5 0.00
5/4/26 - 0400 34.8 98 34.4 34.6 WNW | 296 7.6 15.5 30.7 0.00 0.1 46.9 34.8 38.5 0.00
5/4/26 - 0300 37.2 84 32.8 35.1 SSW | 208 9.5 15.8 30.7 0.00 0.1 46.8 36.8 38.5 0.00
5/4/26 - 0200 37.2 82 32.2 34.8 SSW | 202 9.1 14.1 31.2 0.00 0.1 46.8 37.0 38.5 0.00
5/4/26 - 0100 37.3 84 32.9 35.2 SSW | 211 7.8 13.7 32.2 0.00 0.1 46.8 37.0 38.5 0.00
5/4/26 - 0000 38.4 70 29.6 34.4 SW | 224 5.7 11.2 35.0 0.00 0.1 46.8 33.1 53.4 0.24
5/3/26 - 2300 39.8 61 27.4 34.2 WNW | 294 1.5 5.0 37.7 0.00 0.0 46.7 33.1 53.4 0.24
5/3/26 - 2200 37.6 75 30.3 34.2 E | 90 1.2 4.8 37.7 0.00 0.0 46.7 33.1 53.4 0.24
5/3/26 - 2100 38.4 71 29.7 34.3 W | 272 1.0 4.6 36.9 0.00 0.0 46.7 33.1 53.4 0.24
5/3/26 - 2000 35.9 91 33.5 34.7 NW | 320 2.7 7.4 33.8 0.00 0.1 46.8 33.1 53.4 0.24
Max 39.8 100 35.1 35.9 - 9.5 18.5 37.7 0.22 1.1 48.0 37.0 53.4 0.75
Avg 35.7 89 32.7 34.2 - 5.5 11.2 31.7 0.03 0.1 46.9 - - -
Min 31.8 61 27.4 31.8 - 0.0 0.0 24.9 0.00 0.0 46.6 31.7 38.5 0.00
Total - - - - - - - - 0.75 - - - - -

Last 30 Days

OV-Belmont 8000'

Daily Data | America/Los_Angeles
as of 5/4/26 8:25 PM PDT
Date Daily Max Temp (°F) Time of Max Temp Daily Min Temp (°F) Time of Min Temp Daily Rain (In) Season Precip (In) New Snow (HN) (in) Snow Depth (HS) (in) Wind Spd (mph) Daily Max Wind (mph) Time of Max Wind Max Wind Dir (°) Daily Max RH (%) Daily Min RH (%) Wet Bulb (°F) WetB Hrs <28F (hrs) MinBV Day (V)
5/3/26 53.4 1248 33.1 1545 0.24 100.30 0.1 46.8 5.5 33.6 1406 S | 170 100 45 37.4 0.0 12.8
5/2/26 53.7 1154 40.7 2315 0.12 100.10 0.0 47.6 7.9 23.5 1156 S | 191 93 44 40.4 0.0 12.8
5/1/26 60.0 1700 39.0 0423 0.00 100.00 0.0 49.0 4.2 18.2 1110 E | 94 79 24 37.6 0.0 12.9
4/30/26 59.5 1609 37.0 0605 0.00 100.00 0.1 50.7 3.4 18.4 1146 E | 88 90 27 37.6 0.0 12.8
4/29/26 56.9 1449 31.3 0420 0.00 100.00 0.1 52.1 3.5 16.7 1604 WSW | 241 96 28 36.0 0.0 12.8
4/28/26 47.8 1240 26.7 0349 0.01 100.00 0.0 53.2 3.8 16.1 1526 WNW | 293 100 38 31.8 3.7 12.8
4/27/26 42.7 1500 21.7 0633 0.02 100.00 0.2 54.0 5.3 17.3 0216 SE | 130 100 52 27.9 11.1 12.9
4/26/26 33.1 1235 25.0 0558 0.19 100.00 1.5 56.1 13.0 39.0 1527 ESE | 115 100 80 26.9 15.7 12.9
4/25/26 43.6 1401 27.0 2359 0.00 99.80 0.0 54.2 10.4 28.6 1131 S | 191 100 28 30.4 4.1 12.8
4/24/26 49.3 1356 32.3 1925 0.20 99.80 0.5 55.1 4.4 22.4 1543 SW | 225 100 50 34.0 0.0 12.8
4/23/26 50.6 1403 22.7 0358 0.00 99.60 0.0 57.2 3.1 11.9 1811 SW | 215 100 43 31.5 7.8 12.9
4/22/26 31.7 1514 19.9 0251 0.25 99.60 9.0 60.6 9.8 32.2 0502 ESE | 107 98 89 24.0 20.9 12.9
4/21/26 34.8 0001 22.4 2213 1.46 99.30 6.6 61.7 10.1 32.7 2004 S | 176 99 77 27.3 14.1 12.9
4/20/26 48.4 1547 34.1 2256 0.00 97.90 0.2 51.8 14.0 36.3 0123 SSE | 167 83 32 33.7 0.0 12.8
4/19/26 52.6 1229 35.5 0406 0.00 97.90 0.1 53.1 13.9 34.6 2159 NE | 56 79 33 34.7 0.0 12.8
4/18/26 59.4 1321 32.0 0617 0.00 97.90 0.1 55.2 3.2 16.3 2355 SSW | 204 86 25 34.5 5.0 12.9
4/17/26 53.7 1637 17.8 0517 0.00 97.90 0.0 57.8 4.0 23.4 0122 ENE | 64 72 15 24.2 15.8 12.9
4/16/26 42.7 1638 19.8 2354 0.00 97.90 0.1 59.7 10.0 37.5 0235 S | 170 98 20 25.2 20.0 12.9
4/15/26 39.6 1353 28.7 2343 0.00 97.90 0.0 62.4 17.4 45.0 2132 SE | 132 88 37 29.0 9.8 12.9
4/14/26 40.2 1546 24.3 0411 0.00 97.90 0.0 65.7 7.0 24.5 1650 SW | 216 98 35 28.4 13.3 12.9
4/13/26 37.0 1511 22.8 0001 0.18 97.90 0.0 71.5 3.1 14.3 2038 NW | 322 100 91 27.9 14.2 12.9
4/12/26 26.6 1328 20.0 0322 2.01 97.70 9.4 77.8 6.2 32.2 0031 SSE | 154 100 99 22.6 24.0 13.0
4/11/26 31.8 1209 23.6 2359 1.84 95.70 8.4 61.8 12.2 46.9 1643 E | 101 100 100 28.9 3.0 12.9
4/10/26 40.1 1145 28.4 2319 1.21 93.80 4.5 49.8 11.4 38.7 1346 SE | 136 100 80 32.7 0.0 12.9
4/9/26 47.2 1151 36.3 2359 0.11 92.60 0.3 44.3 7.0 33.2 2245 S | 172 97 57 38.2 0.0 12.8
4/8/26 54.6 1231 38.3 2324 0.00 92.50 0.1 45.5 7.0 21.8 2014 SSW | 212 93 26 36.6 0.0 12.8
4/7/26 56.6 1330 39.0 0001 0.00 92.50 0.0 46.6 9.1 21.8 2032 SW | 225 63 15 33.7 1.3 12.9
4/6/26 56.4 1449 38.0 2348 0.00 92.50 0.0 47.9 6.7 19.6 1508 WSW | 250 69 20 36.1 0.1 12.9
4/5/26 56.8 1205 37.3 0458 0.00 92.50 0.0 49.9 3.8 15.4 1549 S | 182 50 22 34.3 0.0 12.9
4/4/26 54.2 1536 29.8 0415 0.00 92.50 0.0 52.2 3.7 15.6 0944 ESE | 111 63 23 30.7 8.2 12.9
Max 60.0 - 40.7 - 2.01 100.30 9.4 77.8 17.4 46.9 - - 100 100 40.4 24.0 13.0
Avg - - - - - - 1.4 55.0 7.5 - - - - - 31.8 - -
Min 26.6 - 17.8 - 0.00 92.50 0.0 44.3 3.1 11.9 - - 50 15 22.6 0.0 12.8
Calm: 3.1%
Calm: 1.0%